RYR1PX EDJA-EGSS

Flight info

Callsign RYR1PX
Flight time 1h 24m
Altitude 40000
Route LUPOL5A LUPOL Z79 SUDEN Y710 ETAGO DCT LIRSU DCT KOZUF DCT IMPOH DCT SASKI L608 SUMUM Y6 TOSVA TOSVA1A
Aircraft B738/M-SDE2E3FGHIRWXY/LB1

Departure

Time 2026-05-03 21:45
Airport Memmingen Allgau Airport (EDJA)

Arrival

Time 2026-05-03 23:09
Airport London Stansted Airport (EGSS)
Time Latitude Longitude Altitude Speed Heading
2026-05-03 21:14 47.98865 10.23235 2079 ft 0 kts 49°
2026-05-03 21:40 47.98867 10.23246 2079 ft 2 kts 86°
2026-05-03 21:40 47.98853 10.23270 2078 ft 4 kts 135°
2026-05-03 21:40 47.98841 10.23315 2080 ft 7 kts 91°
2026-05-03 21:40 47.98855 10.23399 2080 ft 10 kts 69°
2026-05-03 21:41 47.98886 10.23524 2077 ft 17 kts 71°
2026-05-03 21:41 47.98911 10.23658 2075 ft 9 kts 94°
2026-05-03 21:41 47.98878 10.23729 2076 ft 9 kts 147°
2026-05-03 21:41 47.98828 10.23812 2076 ft 14 kts 92°
2026-05-03 21:42 47.98878 10.23956 2073 ft 19 kts 59°
2026-05-03 21:42 47.98956 10.24146 2070 ft 24 kts 57°
2026-05-03 21:42 47.99048 10.24375 2067 ft 28 kts 59°
2026-05-03 21:42 47.99151 10.24631 2066 ft 30 kts 59°
2026-05-03 21:43 47.99241 10.24873 2065 ft 15 kts 72°
2026-05-03 21:43 47.99290 10.24969 2063 ft 1 kts 328°
2026-05-03 21:43 47.99287 10.24959 2063 ft 1 kts 242°
2026-05-03 21:43 47.99276 10.24936 2063 ft 3 kts 236°
2026-05-03 21:44 47.99239 10.24850 2065 ft 19 kts 239°
2026-05-03 21:44 47.99071 10.24429 2067 ft 80 kts 239°
2026-05-03 21:44 47.98686 10.23458 2079 ft 135 kts 238°
2026-05-03 21:44 47.98145 10.22067 2248 ft 169 kts 240°
2026-05-03 21:45 47.97533 10.20416 2790 ft 195 kts 244°
2026-05-03 21:45 47.96837 10.18553 3392 ft 215 kts 241°
2026-05-03 21:45 47.96010 10.16599 4028 ft 230 kts 239°
2026-05-03 21:45 47.95129 10.14526 4729 ft 243 kts 239°
2026-05-03 21:46 47.94247 10.12444 5763 ft 235 kts 237°
2026-05-03 21:46 47.93436 10.10280 6227 ft 246 kts 252°
2026-05-03 21:46 47.93424 10.07711 6686 ft 255 kts 283°
2026-05-03 21:46 47.94064 10.05233 7270 ft 259 kts 300°
2026-05-03 21:47 47.95222 10.03140 7823 ft 264 kts 311°
2026-05-03 21:47 47.96512 10.01161 8362 ft 268 kts 311°
2026-05-03 21:47 47.97906 9.99277 8875 ft 276 kts 326°
2026-05-03 21:47 47.99720 9.98343 9421 ft 283 kts 346°
2026-05-03 21:48 48.01661 9.97727 9917 ft 288 kts 345°
2026-05-03 21:48 48.03635 9.97103 10422 ft 291 kts 345°
2026-05-03 21:48 48.05605 9.96467 11028 ft 289 kts 345°
2026-05-03 21:48 48.07578 9.95822 11587 ft 290 kts 345°
2026-05-03 21:49 48.09554 9.95170 12135 ft 291 kts 345°
2026-05-03 21:49 48.11535 9.94514 12691 ft 292 kts 344°
2026-05-03 21:49 48.13523 9.93855 13247 ft 293 kts 345°
2026-05-03 21:49 48.15517 9.93192 13794 ft 294 kts 344°
2026-05-03 21:50 48.17520 9.92526 14265 ft 295 kts 345°
2026-05-03 21:50 48.19528 9.91858 14729 ft 297 kts 345°
2026-05-03 21:50 48.21451 9.90805 15140 ft 293 kts 321°
2026-05-03 21:50 48.22870 9.88686 15604 ft 287 kts 301°
2026-05-03 21:51 48.23963 9.86162 16034 ft 289 kts 298°
2026-05-03 21:51 48.25013 9.83571 16481 ft 291 kts 298°
2026-05-03 21:51 48.26050 9.81000 16934 ft 292 kts 298°
2026-05-03 21:51 48.27111 9.78387 17377 ft 294 kts 298°
2026-05-03 21:52 48.28187 9.75758 17821 ft 296 kts 298°
2026-05-03 21:52 48.29270 9.73124 18271 ft 297 kts 298°
2026-05-03 21:52 48.30360 9.70481 18658 ft 299 kts 299°
2026-05-03 21:52 48.31461 9.67817 19031 ft 300 kts 298°
2026-05-03 21:53 48.32565 9.65140 19389 ft 302 kts 298°
2026-05-03 21:53 48.33679 9.62441 19763 ft 304 kts 298°
2026-05-03 21:53 48.34791 9.59729 20120 ft 306 kts 298°
2026-05-03 21:53 48.35908 9.56993 20474 ft 308 kts 298°
2026-05-03 21:54 48.37014 9.54278 20836 ft 309 kts 298°
2026-05-03 21:54 48.38141 9.51511 21189 ft 311 kts 298°
2026-05-03 21:54 48.39340 9.48788 21529 ft 316 kts 308°
2026-05-03 21:54 48.41136 9.46815 21815 ft 327 kts 334°
2026-05-03 21:55 48.43377 9.46063 22133 ft 335 kts 355°
2026-05-03 21:55 48.45724 9.46059 22451 ft 339 kts 358°
2026-05-03 21:55 48.48121 9.46134 22550 ft 353 kts 358°
2026-05-03 21:55 48.50626 9.46179 22683 ft 366 kts 358°
2026-05-03 21:56 48.53223 9.46197 22799 ft 380 kts 358°
2026-05-03 21:56 48.55921 9.46182 22888 ft 394 kts 357°
2026-05-03 21:56 48.58700 9.46148 23018 ft 407 kts 357°
2026-05-03 21:56 48.61579 9.46112 23113 ft 420 kts 357°
2026-05-03 21:57 48.64546 9.46079 23240 ft 431 kts 357°
2026-05-03 21:57 48.67573 9.46048 23544 ft 437 kts 357°
2026-05-03 21:57 48.70591 9.45590 23891 ft 435 kts 340°
2026-05-03 21:57 48.73320 9.43715 24306 ft 428 kts 323°
2026-05-03 21:58 48.75550 9.40880 24696 ft 422 kts 307°
2026-05-03 21:58 48.77387 9.37418 25053 ft 422 kts 304°
2026-05-03 21:58 48.79174 9.33866 25386 ft 425 kts 303°
2026-05-03 21:58 48.80958 9.30274 25712 ft 428 kts 303°
2026-05-03 21:59 48.82753 9.26662 26062 ft 430 kts 303°
2026-05-03 21:59 48.84570 9.23029 26408 ft 432 kts 303°
2026-05-03 21:59 48.86398 9.19392 26768 ft 434 kts 303°
2026-05-03 21:59 48.88243 9.15736 27100 ft 437 kts 303°
2026-05-03 22:00 48.90099 9.12067 27423 ft 439 kts 303°
2026-05-03 22:00 48.91966 9.08376 27748 ft 441 kts 303°
2026-05-03 22:00 48.93840 9.04670 28057 ft 443 kts 303°
2026-05-03 22:00 48.95721 9.00946 28375 ft 445 kts 303°
2026-05-03 22:01 48.97605 8.97212 28707 ft 446 kts 303°
2026-05-03 22:01 48.99499 8.93451 29003 ft 448 kts 303°
2026-05-03 22:01 49.01377 8.89715 29277 ft 450 kts 303°
2026-05-03 22:01 49.03280 8.85924 29547 ft 452 kts 303°
2026-05-03 22:02 49.05196 8.82103 29819 ft 454 kts 303°
2026-05-03 22:02 49.07140 8.78220 30118 ft 455 kts 303°
2026-05-03 22:02 49.09032 8.74437 30383 ft 456 kts 303°
2026-05-03 22:02 49.10957 8.70582 30732 ft 454 kts 303°
2026-05-03 22:03 49.12864 8.66761 31133 ft 451 kts 303°
2026-05-03 22:03 49.14755 8.62965 31506 ft 448 kts 302°
2026-05-03 22:03 49.16641 8.59171 31814 ft 448 kts 302°
2026-05-03 22:03 49.18520 8.55384 32106 ft 447 kts 302°
2026-05-03 22:04 49.20399 8.51593 32411 ft 446 kts 302°
2026-05-03 22:04 49.22267 8.47818 32764 ft 444 kts 302°
2026-05-03 22:04 49.24130 8.44048 33043 ft 444 kts 302°
2026-05-03 22:04 49.25990 8.40279 33328 ft 443 kts 302°
2026-05-03 22:05 49.27818 8.36569 33623 ft 442 kts 302°
2026-05-03 22:05 49.29663 8.32821 33930 ft 440 kts 302°
2026-05-03 22:05 49.31505 8.29072 34183 ft 440 kts 302°
2026-05-03 22:05 49.33341 8.25331 34394 ft 439 kts 302°
2026-05-03 22:06 49.35184 8.21569 34597 ft 439 kts 302°
2026-05-03 22:06 49.37018 8.17822 34811 ft 439 kts 302°
2026-05-03 22:06 49.38846 8.14082 35025 ft 438 kts 302°
2026-05-03 22:06 49.40675 8.10333 35223 ft 438 kts 302°
2026-05-03 22:07 49.42498 8.06593 35446 ft 437 kts 302°
2026-05-03 22:07 49.44317 8.02855 35662 ft 436 kts 302°
2026-05-03 22:07 49.46130 7.99124 35836 ft 436 kts 302°
2026-05-03 22:07 49.47921 7.95432 36017 ft 436 kts 302°
2026-05-03 22:08 49.49735 7.91688 36188 ft 436 kts 302°
2026-05-03 22:08 49.51550 7.87938 36378 ft 436 kts 302°
2026-05-03 22:08 49.53357 7.84198 36563 ft 435 kts 302°
2026-05-03 22:08 49.55164 7.80455 36733 ft 435 kts 302°
2026-05-03 22:09 49.56967 7.76712 36890 ft 435 kts 302°
2026-05-03 22:09 49.58777 7.72952 37056 ft 435 kts 302°
2026-05-03 22:09 49.60576 7.69206 37172 ft 436 kts 302°
2026-05-03 22:10 49.64196 7.61655 37387 ft 438 kts 302°
2026-05-03 22:10 49.66004 7.57878 37534 ft 438 kts 302°
2026-05-03 22:10 49.67818 7.54080 37589 ft 440 kts 302°
2026-05-03 22:11 49.71435 7.46491 37710 ft 443 kts 302°
2026-05-03 22:11 49.73282 7.42609 37830 ft 443 kts 302°
2026-05-03 22:11 49.75087 7.38810 37870 ft 445 kts 302°
2026-05-03 22:12 49.78758 7.31064 37963 ft 447 kts 302°
2026-05-03 22:12 49.82438 7.23280 38021 ft 448 kts 302°
2026-05-03 22:13 49.86113 7.15484 37988 ft 446 kts 301°
2026-05-03 22:13 49.89752 7.07741 37990 ft 443 kts 301°
2026-05-03 22:14 49.93378 7.00003 38016 ft 442 kts 301°
2026-05-03 22:14 49.96957 6.92339 37978 ft 441 kts 301°
2026-05-03 22:15 50.00556 6.84610 37992 ft 441 kts 301°
2026-05-03 22:15 50.04165 6.76834 37993 ft 446 kts 301°
2026-05-03 22:16 50.07811 6.68957 37990 ft 450 kts 301°
2026-05-03 22:16 50.11483 6.61003 37989 ft 453 kts 301°
2026-05-03 22:17 50.15172 6.52992 37968 ft 456 kts 301°
2026-05-03 22:17 50.18867 6.44941 37962 ft 456 kts 300°
2026-05-03 22:18 50.22469 6.36836 37975 ft 453 kts 300°
2026-05-03 22:18 50.25409 6.30076 37977 ft 452 kts 300°
2026-05-03 22:19 50.29519 6.20608 37986 ft 452 kts 300°
2026-05-03 22:19 50.32485 6.13781 37983 ft 452 kts 300°
2026-05-03 22:20 50.36018 6.05637 37979 ft 452 kts 300°
2026-05-03 22:20 50.39528 5.97523 37975 ft 453 kts 300°
2026-05-03 22:21 50.43063 5.89326 37979 ft 454 kts 300°
2026-05-03 22:21 50.46603 5.81092 37970 ft 455 kts 300°
2026-05-03 22:22 50.50138 5.72845 37970 ft 456 kts 300°
2026-05-03 22:22 50.53678 5.64558 37970 ft 456 kts 300°
2026-05-03 22:23 50.57215 5.56252 37971 ft 457 kts 300°
2026-05-03 22:23 50.60732 5.47968 37964 ft 458 kts 300°
2026-05-03 22:24 50.64264 5.39622 37967 ft 458 kts 299°
2026-05-03 22:24 50.67797 5.31246 37966 ft 458 kts 299°
2026-05-03 22:25 50.71316 5.22878 37966 ft 458 kts 299°
2026-05-03 22:25 50.74831 5.14491 37986 ft 458 kts 299°
2026-05-03 22:26 50.78320 5.06138 37970 ft 459 kts 299°
2026-05-03 22:26 50.81833 4.97704 37963 ft 459 kts 299°
2026-05-03 22:27 50.85337 4.89262 37957 ft 459 kts 299°
2026-05-03 22:27 50.88835 4.80808 37959 ft 459 kts 299°
2026-05-03 22:28 50.92325 4.72346 37959 ft 459 kts 299°
2026-05-03 22:28 50.95813 4.63860 37972 ft 459 kts 299°
2026-05-03 22:29 50.99274 4.55411 37968 ft 460 kts 299°
2026-05-03 22:29 51.02754 4.46891 37966 ft 460 kts 299°
2026-05-03 22:30 51.06230 4.38351 37962 ft 460 kts 299°
2026-05-03 22:30 51.09699 4.29799 37964 ft 460 kts 299°
2026-05-03 22:31 51.13157 4.21249 37961 ft 459 kts 298°
2026-05-03 22:31 51.16611 4.12679 37954 ft 459 kts 298°
2026-05-03 22:32 51.20057 4.04098 37948 ft 459 kts 298°
2026-05-03 22:32 51.23472 3.95570 37940 ft 459 kts 298°
2026-05-03 22:33 51.26899 3.86982 37946 ft 458 kts 298°
2026-05-03 22:33 51.30322 3.78372 37950 ft 458 kts 298°
2026-05-03 22:34 51.33739 3.69756 37941 ft 458 kts 298°
2026-05-03 22:34 51.36348 3.60611 37940 ft 448 kts 282°
2026-05-03 22:35 51.37975 3.50997 37937 ft 448 kts 281°
2026-05-03 22:35 51.39599 3.41372 37937 ft 448 kts 281°
2026-05-03 22:36 51.41263 3.31751 37957 ft 448 kts 281°
2026-05-03 22:36 51.42933 3.22125 37947 ft 448 kts 281°
2026-05-03 22:37 51.44600 3.12457 37585 ft 452 kts 281°
2026-05-03 22:37 51.45424 3.07620 37173 ft 447 kts 281°
2026-05-03 22:37 51.46223 3.02825 36658 ft 444 kts 280°
2026-05-03 22:37 51.47008 2.98049 36141 ft 441 kts 279°
2026-05-03 22:38 51.47773 2.93370 35669 ft 439 kts 279°
2026-05-03 22:38 51.48551 2.88607 35167 ft 432 kts 279°
2026-05-03 22:38 51.49308 2.83979 34687 ft 426 kts 279°
2026-05-03 22:38 51.50044 2.79473 34214 ft 420 kts 278°
2026-05-03 22:39 51.50786 2.74910 33638 ft 415 kts 278°
2026-05-03 22:39 51.51509 2.70453 33004 ft 411 kts 278°
2026-05-03 22:39 51.52224 2.66030 32356 ft 408 kts 278°
2026-05-03 22:39 51.52933 2.61634 31709 ft 405 kts 278°
2026-05-03 22:40 51.53636 2.57269 31078 ft 403 kts 278°
2026-05-03 22:40 51.54327 2.52970 30468 ft 401 kts 277°
2026-05-03 22:40 51.55064 2.48655 29847 ft 401 kts 281°
2026-05-03 22:40 51.55996 2.44429 29143 ft 400 kts 284°
2026-05-03 22:41 51.56977 2.40273 28468 ft 396 kts 284°
2026-05-03 22:41 51.57950 2.36101 27777 ft 391 kts 285°
2026-05-03 22:41 51.58879 2.32065 27117 ft 387 kts 285°
2026-05-03 22:41 51.59803 2.28011 26444 ft 384 kts 285°
2026-05-03 22:42 51.60717 2.23989 25726 ft 382 kts 285°
2026-05-03 22:42 51.61625 2.19982 25040 ft 380 kts 285°
2026-05-03 22:42 51.62535 2.15988 24365 ft 379 kts 288°
2026-05-03 22:42 51.63818 2.12253 23677 ft 384 kts 304°
2026-05-03 22:43 51.65699 2.09184 22957 ft 388 kts 319°
2026-05-03 22:43 51.68009 2.06916 22214 ft 389 kts 329°
2026-05-03 22:43 51.70373 2.04963 21563 ft 385 kts 330°
2026-05-03 22:43 51.72758 2.03010 20907 ft 381 kts 330°
2026-05-03 22:44 51.75104 2.01068 20366 ft 375 kts 329°
2026-05-03 22:44 51.77398 1.99142 19868 ft 369 kts 329°
2026-05-03 22:44 51.79641 1.97238 19486 ft 359 kts 329°
2026-05-03 22:44 51.81827 1.95372 19109 ft 351 kts 329°
2026-05-03 22:45 51.83963 1.93545 18748 ft 343 kts 329°
2026-05-03 22:45 51.86051 1.91755 18382 ft 336 kts 329°
2026-05-03 22:45 51.87995 1.89760 17979 ft 326 kts 310°
2026-05-03 22:45 51.89113 1.86726 17964 ft 314 kts 285°
2026-05-03 22:46 51.89626 1.83272 17926 ft 317 kts 277°
2026-05-03 22:46 51.89992 1.79734 17915 ft 319 kts 276°
2026-05-03 22:46 51.90331 1.76198 17899 ft 317 kts 276°
2026-05-03 22:46 51.90667 1.72664 17896 ft 317 kts 276°
2026-05-03 22:47 51.90939 1.69121 17863 ft 317 kts 272°
2026-05-03 22:47 51.91132 1.65565 17714 ft 316 kts 272°
2026-05-03 22:47 51.91308 1.62014 17419 ft 317 kts 271°
2026-05-03 22:47 51.91476 1.58456 17015 ft 317 kts 271°
2026-05-03 22:48 51.91640 1.54854 16648 ft 330 kts 271°
2026-05-03 22:48 51.91800 1.51098 16289 ft 344 kts 271°
2026-05-03 22:48 51.91960 1.47212 15902 ft 345 kts 271°
2026-05-03 22:48 51.92115 1.43334 15528 ft 345 kts 271°
2026-05-03 22:49 51.92390 1.39475 15154 ft 345 kts 277°
2026-05-03 22:49 51.92846 1.35656 14787 ft 346 kts 279°
2026-05-03 22:49 51.93344 1.31859 14417 ft 343 kts 280°
2026-05-03 22:49 51.93834 1.28090 14053 ft 340 kts 279°
2026-05-03 22:50 51.94305 1.24345 13691 ft 337 kts 279°
2026-05-03 22:50 51.94758 1.20623 13286 ft 335 kts 279°
2026-05-03 22:50 51.95198 1.16916 12907 ft 332 kts 279°
2026-05-03 22:50 51.95625 1.13264 12600 ft 327 kts 278°
2026-05-03 22:51 51.96041 1.09664 12285 ft 324 kts 278°
2026-05-03 22:51 51.96447 1.06117 11980 ft 322 kts 278°
2026-05-03 22:51 51.96853 1.02550 11674 ft 321 kts 278°
2026-05-03 22:51 51.97255 0.99017 11379 ft 316 kts 278°
2026-05-03 22:52 51.97645 0.95569 11120 ft 306 kts 278°
2026-05-03 22:52 51.98023 0.92225 10863 ft 297 kts 278°
2026-05-03 22:52 51.98390 0.88968 10607 ft 289 kts 278°
2026-05-03 22:52 51.98747 0.85790 10351 ft 284 kts 278°
2026-05-03 22:53 51.99097 0.82661 10111 ft 281 kts 278°
2026-05-03 22:53 51.99446 0.79523 9883 ft 284 kts 278°
2026-05-03 22:53 51.99797 0.76368 9635 ft 286 kts 278°
2026-05-03 22:53 52.00151 0.73186 9369 ft 287 kts 278°
2026-05-03 22:54 52.00503 0.70019 9107 ft 284 kts 278°
2026-05-03 22:54 52.00850 0.66882 8841 ft 281 kts 278°
2026-05-03 22:54 52.01193 0.63774 8575 ft 278 kts 278°
2026-05-03 22:54 52.01531 0.60694 8322 ft 275 kts 278°
2026-05-03 22:55 52.01866 0.57649 8071 ft 273 kts 278°
2026-05-03 22:55 52.02076 0.54606 7813 ft 270 kts 272°
2026-05-03 22:55 52.02180 0.51578 7564 ft 268 kts 271°
2026-05-03 22:55 52.02270 0.48567 7314 ft 266 kts 271°
2026-05-03 22:56 52.02354 0.45577 7066 ft 264 kts 271°
2026-05-03 22:56 52.02434 0.42613 6816 ft 262 kts 271°
2026-05-03 22:56 52.02511 0.39662 6579 ft 260 kts 271°
2026-05-03 22:56 52.02587 0.36731 6334 ft 259 kts 271°
2026-05-03 22:57 52.02659 0.33859 6093 ft 257 kts 271°
2026-05-03 22:57 52.02732 0.30976 6007 ft 248 kts 271°
2026-05-03 22:57 52.02802 0.28268 5986 ft 239 kts 271°
2026-05-03 22:57 52.02871 0.25595 5990 ft 236 kts 271°
2026-05-03 22:58 52.02940 0.22948 5999 ft 235 kts 271°
2026-05-03 22:58 52.03008 0.20268 6004 ft 238 kts 271°
2026-05-03 22:58 52.03075 0.17567 6013 ft 241 kts 271°
2026-05-03 22:58 52.03142 0.14825 6002 ft 244 kts 271°
2026-05-03 22:59 52.03209 0.12064 5998 ft 244 kts 271°
2026-05-03 22:59 52.03277 0.09327 5982 ft 241 kts 271°
2026-05-03 22:59 52.03344 0.06629 5988 ft 237 kts 271°
2026-05-03 22:59 52.03411 0.03964 5991 ft 237 kts 271°
2026-05-03 23:00 52.03444 0.01272 5993 ft 238 kts 262°
2026-05-03 23:00 52.02878 -0.01206 5992 ft 234 kts 231°
2026-05-03 23:00 52.01602 -0.02781 5993 ft 232 kts 199°
2026-05-03 23:00 52.00015 -0.03175 6016 ft 232 kts 182°
2026-05-03 23:01 51.98411 -0.03235 6003 ft 234 kts 181°
2026-05-03 23:01 51.96782 -0.03261 5999 ft 235 kts 181°
2026-05-03 23:01 51.95128 -0.03282 5781 ft 241 kts 181°
2026-05-03 23:01 51.93443 -0.03301 5529 ft 241 kts 181°
2026-05-03 23:02 51.91769 -0.03320 5276 ft 240 kts 181°
2026-05-03 23:02 51.90102 -0.03341 5026 ft 238 kts 181°
2026-05-03 23:02 51.88466 -0.03362 4807 ft 232 kts 181°
2026-05-03 23:02 51.86886 -0.03385 4553 ft 222 kts 181°
2026-05-03 23:03 51.85381 -0.03408 4298 ft 211 kts 181°
2026-05-03 23:03 51.83942 -0.03433 4029 ft 203 kts 181°
2026-05-03 23:03 51.82553 -0.03460 3757 ft 197 kts 181°
2026-05-03 23:03 51.81218 -0.03197 3475 ft 194 kts 155°
2026-05-03 23:04 51.80220 -0.01827 3233 ft 187 kts 129°
2026-05-03 23:04 51.79679 -0.00754 3062 ft 186 kts 130°
2026-05-03 23:04 51.78836 0.00850 2830 ft 189 kts 131°
2026-05-03 23:04 51.77970 0.02462 2587 ft 191 kts 131°
2026-05-03 23:05 51.77094 0.04091 2326 ft 191 kts 130°
2026-05-03 23:05 51.76478 0.05956 2049 ft 192 kts 94°
2026-05-03 23:05 51.76846 0.07937 2001 ft 185 kts 46°
2026-05-03 23:05 51.77921 0.08745 1984 ft 167 kts 354°
2026-05-03 23:06 51.78904 0.07930 2007 ft 161 kts 309°
2026-05-03 23:06 51.79892 0.07113 1939 ft 167 kts
2026-05-03 23:06 51.80946 0.08095 2020 ft 194 kts 51°
2026-05-03 23:06 51.81490 0.10010 1973 ft 180 kts 72°
2026-05-03 23:07 51.81859 0.11736 2035 ft 152 kts 69°
2026-05-03 23:07 51.82299 0.13322 1995 ft 161 kts 56°
2026-05-03 23:07 51.82988 0.14788 1862 ft 161 kts 49°
2026-05-03 23:07 51.83679 0.16175 1539 ft 156 kts 49°
2026-05-03 23:08 51.84388 0.17453 1257 ft 147 kts 39°
2026-05-03 23:08 51.85162 0.18499 1017 ft 143 kts 34°
2026-05-03 23:08 51.85915 0.19583 885 ft 149 kts 41°
2026-05-03 23:08 51.86668 0.20737 659 ft 148 kts 41°
2026-05-03 23:09 51.87410 0.21857 449 ft 143 kts 41°
2026-05-03 23:09 51.88126 0.22913 331 ft 132 kts 41°
2026-05-03 23:09 51.88685 0.23755 338 ft 88 kts 42°
2026-05-03 23:09 51.88929 0.24117 350 ft 20 kts 44°
2026-05-03 23:10 51.89013 0.24262 350 ft 13 kts 52°
2026-05-03 23:10 51.89059 0.24380 348 ft 12 kts 62°
2026-05-03 23:10 51.89097 0.24523 352 ft 16 kts 68°
2026-05-03 23:10 51.89138 0.24682 349 ft 10 kts 69°
2026-05-03 23:11 51.89152 0.24739 346 ft 5 kts 67°
2026-05-03 23:11 51.89165 0.24791 344 ft 4 kts 68°
2026-05-03 23:11 51.89166 0.24797 346 ft 0 kts 74°
2026-05-03 23:11 51.89168 0.24835 342 ft 7 kts 96°
2026-05-03 23:12 51.89156 0.24931 352 ft 10 kts 103°
2026-05-03 23:12 51.89192 0.25021 354 ft 12 kts 33°
2026-05-03 23:12 51.89241 0.25151 351 ft 15 kts 100°
2026-05-03 23:12 51.89173 0.25278 353 ft 15 kts 155°
2026-05-03 23:13 51.89108 0.25358 355 ft 11 kts 131°
2026-05-03 23:13 51.89054 0.25450 353 ft 11 kts 135°
2026-05-03 23:13 51.89014 0.25521 354 ft 8 kts 134°
2026-05-03 23:13 51.88992 0.25558 351 ft 0 kts 134°
2026-05-03 23:14 51.88991 0.25559 360 ft 1 kts 134°
2026-05-03 23:14 51.88961 0.25593 353 ft 7 kts 181°
2026-05-03 23:14 51.88929 0.25557 353 ft 0 kts 222°